Location: ČR
(50.0000°N, 15.0000°E)
Time: 14:39:52
(UTC+00:00)

Explorer 7 - Pass Details

Date: 28 October 2021
Orbit: 483 x 675 km, 50.3° (Epoch: 27 November)

Event Time Altitude Azimuth Distance (km) Brightness Sun altitude
Rises 21:07:39 0° 269° (W) 2,673 - -48.5°
Reaches altitude 10° 21:09:48 10° 270° (W) 1,812 - -48.7°
Maximum altitude 21:13:56 85° 356° (N) 578 - -49.1°
Drops below altitude 10° 21:18:23 10° 88° (E) 1,936 - -49.5°
Sets 21:20:45 0° 89° (E) 2,873 - -49.7°
